Treasure Island

Jonathan Platt


Stats

» Click to list general statistics » OR, select a date :

General Statistics

Visitors of the poet

Number of visitors of the poet’s mainpage in PoemHunter.Com

Attention : Numbers in this table does not indicate the total hits of poems of the poet, but indicates the hits of the poet’s main page.

Date Hits
09/15/2014 Monday 18
56%
09/14/2014 Sunday 9
28%
09/13/2014 Saturday 7
21%
09/12/2014 Friday 18
56%
09/11/2014 Thursday 31
96%
09/10/2014 Wednesday 19
59%
09/09/2014 Tuesday 27
84%
09/08/2014 Monday 22
68%
09/07/2014 Sunday 21
65%
09/06/2014 Saturday 1
3%
09/05/2014 Friday 3
9%
09/04/2014 Thursday 24
75%
09/03/2014 Wednesday 7
21%
09/02/2014 Tuesday 18
56%
09/01/2014 Monday 16
50%
08/31/2014 Sunday 5
15%
08/30/2014 Saturday 21
65%
08/29/2014 Friday 32
100%
08/28/2014 Thursday 17
53%
08/27/2014 Wednesday 31
96%

Reader rating & num.of MyPoemList’s

Click the captions of columns to change the order.

# Poem Title Submit Date Reader Rating Num.of MyPoemList’s
Rating Num.R.
1 Love And Power (A Moment's Reflection) 02/02/2013 8.0 1 0
2 Power (A Moment's Reflection) 02/02/2013 -- 0 0
3 Time (A Moment's Reflection) 01/31/2013 10.0 1 0
4 A Dream Has Taken Flight 01/25/2013 10.0 2 0
5 My Mother's Heart 01/25/2013 10.0 1 0
6 Love And Hate (A Moment's Reflection) 01/25/2013 9.5 2 0
7 The Dimensions Of Love 01/22/2013 9.0 1 0
8 A Moment's Contemplation 01/19/2013 10.0 2 0
9 Starlight And Dreams 01/13/2013 10.0 1 0
10 The Creature 'Love' 01/13/2013 9.3 3 1
11 Love is... 01/12/2013 9.3 3 0
12 I Am The Sponge 01/06/2013 10.0 1 0
13 Immortal Nectar: Rain 01/04/2013 10.0 2 0
14 A Spider's Web 01/01/2013 10.0 1 0
15 The Poem 12/30/2012 9.0 1 0
16 The Moon Is Moored 12/30/2012 10.0 2 0
17 Mesmerized 12/29/2012 -- 0 0
18 Our Hearts Must Persevere 12/29/2012 -- 0 0
19 Faith 12/29/2012 9.5 2 0
20 Our Finest Star 12/29/2012 10.0 1 1
21 The Bubble's Fame 12/28/2012 9.7 3 0
22 Curiosity Was Framed 12/28/2012 -- 0 0
23 Only The Dead Are Shown 12/28/2012 -- 0 0
24 This Tranquility... 12/28/2012 -- 0 0
25 Time's Monument 12/28/2012 -- 0 0
26 Laughter 12/27/2012 -- 0 0
27 My Mind Is Never At Ease 12/27/2012 -- 0 0
28 The Nightmare Appears 12/27/2012 8.0 1 0
29 Our Actions 12/27/2012 -- 0 0
30 Hope Is The Engine Of The Heart 12/27/2012 10.0 2 0
31 Tiny Puddles Of Joy 12/27/2012 -- 0 0
32 Hot Summer Days 12/27/2012 -- 0 0
33 The Darkness That Waits (A Fragment) 12/27/2012 -- 0 0
34 Some Dreams Are Forever 12/27/2012 -- 0 0
35 Boon and Doom 12/27/2012 -- 0 0
36 Secrets 12/27/2012 -- 0 0
37 Looking To The Stars 12/27/2012 -- 0 0
38 From There To Here 12/27/2012 -- 0 0
39 Quicksilver Sky 12/27/2012 -- 0 0
40 Worries 12/27/2012 10.0 2 1
41 Her Loveliness 12/27/2012 -- 0 1
42 Emerging Ember 12/25/2012 9.5 2 0
43 The Oldest City 12/25/2012 9.0 1 0
44 The Blissful Dream 12/25/2012 -- 0 0
45 Flames Of Faith 12/25/2012 -- 0 0
46 Riders Of Mortality 12/25/2012 -- 0 0
47 King Of Death 12/25/2012 -- 0 0
48 There Is A Moment... 12/25/2012 -- 0 0
49 The Last Hour (A Fragment) 12/24/2012 -- 0 0
50 Dreaming... 12/16/2012 10.0 1 0
51 Ecstasy 12/14/2012 9.5 2 0
52 Prayers 12/14/2012 8.0 1 0
53 Heaven's Library 12/14/2012 9.5 2 0
54 When Youth Was My Friend 12/14/2012 10.0 3 0
55 Hannah And The Golden Dew 12/14/2012 -- 0 0
56 Hell-Damage 12/13/2012 -- 0 0
57 The Beauty Of Her Soul 12/12/2012 -- 0 0
58 Alone In The Night 12/11/2012 10.0 2 0
59 The Returning 12/10/2012 10.0 2 0
60 If Love Were A Melody 12/10/2012 7.0 1 0
61 So Lightly I Was Touched 12/09/2012 -- 0 0
62 Lies 12/09/2012 -- 0 0
63 God Is The Hardest Worker 12/09/2012 -- 0 0
64 High Blue Country 12/09/2012 9.0 2 0
65 In Madness, There Is Beauty 12/09/2012 9.0 1 0
66 First Kiss 12/09/2012 10.0 2 0
67 Time Is A Burst Of Lightning 12/09/2012 9.7 3 0
68 It Is Love That Makes The Heart Soar (A Moment's Reflection) 12/09/2012 10.0 1 0
69 Turning Sorrow Into A Smile 12/09/2012 10.0 1 1
70 Looking To Heaven (A Moment's Reflection) 12/09/2012 -- 0 0
71 Lightning Is A Crack 12/09/2012 10.0 2 0
72 The Devil Is Jealous Of Mortals 12/09/2012 -- 0 0
73 Books Create The Wise Man 12/09/2012 8.0 1 0
74 The Angels Made God A Banner 12/09/2012 -- 0 0
75 Time 12/09/2012 9.5 2 0
76 Dreams 12/09/2012 10.0 3 1
77 Butterfly: The Unbridled Flower 12/09/2012 10.0 1 0
78 Our Lives Are Like The Fireflies 12/09/2012 -- 0 0
79 Essence Of The Soul 12/09/2012 10.0 1 0
80 A Dream Begins Dark And Silent 12/09/2012 9.7 3 0
[Hata Bildir]